Погода в Умёте

Россия / Тамбовская область     52°33′29″N   42°58′25″E
темп.,
°C
ветер,
м/с
пор.,
м/с
влажн.,
%
обл.,
%
осадки,
мм/ч
давл.,
гПа
погр.,
м
13 апреля, вт
вт1300:00+11вюв5137370 0.0 1029219
03:00+9вюв4126999 0.0 1030189
06:00+8вюв5127081 0.0 1030179
09:00+14юв6114682 0.0 1030396
12:00+19юв793136 0.0 1029961
15:00+20юв7826100 0.0 10271491
18:00+16юв5104163 0.0 1027258
21:00+12вюв41057100 0.0 1027168
14 апреля, ср
ср1400:00+10вюв4116395 0.0 1027171
03:00+8вюв4116983 0.0 1026162
06:00+7вюв4106988 0.0 1025165
09:00+13вюв6104751 0.0 1024400
12:00+18юв6832100 0.0 10221092
15:00+18юв6729100 0.0 10211496
18:00+15юв3545100 0.0 102089
21:00+12вюв46556 0.0 102085
15 апреля, чт
чт1500:00+9вюв48655 0.0 1019118
03:00+8вюв467262 0.0 101987
06:00+8вюв477718 0.0 1018108
09:00+15вюв58565 0.0 1017399
12:00+19вюв5642100 0.0 10161109
15:00+20вюв453299 0.0 10151464
18:00+18вюв364895 0.0 1015122
21:00
16 апреля, пт
пт1600:00+12вюв466499 0.0 101479
03:00+11вюв3465100 0.0 101449
06:00+10в3568100 0.0 101468
09:00+15вюв4653100 0.0 1014357
12:00+17вюв4644100 0.0 1015767
15:00+20вюв4531100 0.0 10142477
18:00+17всв364563 0.0 1014132
21:00+13св51074100 0.2 1017287
17 апреля, сб
сб1700:00+11св3477100 0.1 101661
03:00+9всв5118171 0.1 1017231
06:00+8всв51191100 0.1 1018315
09:00+12всв7971100 0.1 1018573
12:00+15всв7857100 0.0 10181149
15:00+16всв9105155 0.0 10181623
18:00+14всв8105612 0.1 10191136
21:00+9всв815475 0.1 1022540